Epoch 2008 Nov. 30.0 TT = JDT 2454800.5
T 2008 Dec.  9.27116 TT                                 MPC
q   1.9402351            (2000.0)            P               Q
n   0.14049050     Peri.  355.03882     -0.24491992     -0.96347594
a   3.6646971      Node   109.10646     +0.89343474     -0.26766296
e   0.4705606      Incl.    6.58120     +0.37654826     +0.00840514
P   7.02
Residuals in seconds of arc
011013 704  1.1+  1.7-    020110 235  1.4-  0.8+    020210 349  0.2-  0.3+
011013 704  1.1-  1.0-    020111 360  0.3-  0.3+    020210 349  0.4+  0.1+
011013 704  0.9-  0.6-    020111 360  0.4-  0.2+    020210 349  0.3+  0.2+
011017 704  0.5-  0.0     020111 213  0.3-  0.2-    020210 349  0.1-  0.1-
011017 704  1.3-  0.2-    020111 213  1.7-  0.3-    020211 704 (3.9+  3.3-)
011017 704  0.3+  0.2+    020111 213  0.8-  0.1-    020211 704  0.2+  0.5-
011017 704  0.5-  0.8-    020112 458  0.4+  0.6-    020211 704  0.3-  1.4-
011019 608  0.2-  0.9-    020112 170  1.0-  0.2-    020211 704 (0.6-  2.1-)
011019 608  0.5+  0.7-    020112 458 (3.0-  1.5-)   020211 704 (3.6-  0.5-)
011019 608  0.5+  0.3+    020112 170  1.5-  0.2-    020211 886 (0.9-  2.4-)
011116 644  0.2+  0.9+    020112 445 (0.6+  2.8+)   020211 886  0.5-  0.8-
011116 644  0.5+  0.3+    020112 445  0.7+  0.2-    020211 886  0.1+  0.5+
011116 644  0.8+  0.2+    020113 232  0.5-  0.1+    020211 886  0.4-  1.0-
011117 118  0.8+  0.4-    020113 232  1.1-  0.5-    020211 886  0.6-  0.9-
011117 118  0.7+  0.3-    020113 232  1.3-  0.3-    020211 170  1.1-  0.1+
011117 118  1.2+  0.0     020114 704  0.9+  1.9-    020211 170  0.6-  0.2-
011117 118  1.0+  0.4+    020114 704  0.9-  0.3+    020212 704 (0.5+  2.6+)
011117 557  1.3+  0.2+    020114 704  1.0-  1.0+    020212 704  1.5+  1.2+
011117 557  0.9+  0.1+    020114 704  1.2-  0.0     020212 704  0.8+  1.7+
011117 557  0.6+  0.0     020114 704 (5.5-  2.4+)   020213 921  0.5+  0.1-
011117 850  0.5+  0.4+    020116 235  1.6-  1.3+    020213 921  0.7+  0.4-
011117 850  0.7+  0.5+    020117 235  1.4-  1.4+    020213 201  0.5+  0.4-
011117 850  0.2-  0.5+    020117 213  0.6-  0.5-    020213 201  0.0   0.2-
011117 850  1.8+  0.1+    020117 213 (5.6-  0.3-)   020213 201  0.4-  0.4-
011117 644  0.2+  0.5+    020117 213  0.4-  0.3-    020213 049  0.9+  1.1-
011117 644  0.0   0.3+    020117 213  0.9-  0.0     020213 049  0.9+  1.3-
011117 644  0.5+  0.0     020117 213  0.9-  0.0     020213 049  1.2+  0.8-
011117 608  0.7+  1.0-    020117 213  0.9-  0.2-    020214 458  0.9+  0.2+
011117 608  0.1+  0.4-    020119 170  0.1-  0.3-    020214 458  0.1-  0.4-
011117 608  0.1-  1.1-    020119 170  0.7-  0.2-    020214 458 (0.4-  2.2-)
011119 608  0.9+  0.7-    020119 170  1.1-  0.2-    020215 886  0.2+  0.1-
011119 608  0.5+  0.5-    020119 349  0.6-  0.1-    020215 360  0.2+  0.0
011119 608  0.8+  0.1-    020119 349  0.5-  0.4-    020215 886  1.9+  0.5-
011119 342  1.1+  0.1+    020119 349  0.4-  0.5-    020215 360  0.2+  0.1+
011119 342  1.6+  0.2+    020119 349  1.1-  0.1-    020215 886  1.1-  0.5-
011120 402  0.5+  0.1+    020119 213  0.1+  0.0     020215 046  0.3+  0.3+
011120 402  1.1+  0.1-    020119 213  1.0-  0.8-    020215 046  0.4-  0.1+
011120 402  0.9+  0.2-    020119 213  1.2-  0.4-    020215 046  0.5+  0.5+
011121 204  0.0   0.6+    020119 458  1.7-  1.0-    020216 367  0.6+  0.6-
011121 204 (3.4+  1.3+)   020119 458  0.8+  0.3+    020216 367  0.5+  0.4-
011122 867  0.5+  0.0     020120 699 (2.1-  0.1-)   020216 367  0.6+  0.5-
011122 867  0.5+  0.1+    020120 699 (2.5-  0.1-)   020218 213  1.4+  0.4-
011122 867  0.6+  0.0     020120 699 (2.4-  0.6-)   020218 213  0.3-  0.6-
011124 170  0.2+  0.9+    020120 699 (3.4-  0.0 )   020218 213  0.3-  0.3-
011124 170  1.0+  0.1-    020120 232  1.6-  0.0     020218 213  0.2-  0.7-
011124 170 (3.7+  1.6+)   020120 232  1.3-  0.3-    020218 213  0.2-  1.1-
011126 349  0.7+  0.2-    020120 170  1.3-  0.8-    020218 458  1.4+  0.0
011126 349  0.8+  0.1-    020120 170  0.2-  0.7-    020218 458  0.3+  0.5-
011126 349  0.4+  1.1+    020120 170  0.7-  0.5-    020219 170  0.3+  0.3-
011209 213  1.7+  1.9+    020121 704 (0.1+  3.2-)   020221 049  0.5-  0.4-
011209 213  0.5+  1.7+    020121 704  0.5+  1.1+    020221 049  0.2-  0.6-
011209 213  1.2+  0.2+    020121 704  0.2+  1.2+    020221 049  0.0   0.3-
011209 213  1.7+  0.9+    020121 704  1.2-  0.1-    020221 213  1.0+  0.1+
011209 213  0.5+  1.0-    020121 704 (4.7-  2.6+)   020221 213  0.0   0.0
011209 699  0.7+  0.8+    020122 352  1.5-  0.6-    020221 213  0.7+  0.0
011209 699  0.8-  0.4+    020122 352  1.2-  0.4-    020221 213  0.3+  0.0
011209 699  0.5-  0.7+    020122 352  1.3-  0.8-    020222 213  0.8+  1.4-
011209 699  0.7-  1.4+    020122 349  0.7-  0.0     020222 213  1.0-  1.4-
011211 704  0.6-  0.5+    020122 349  0.0   0.3-    020222 213  1.1+  1.0-
011211 704  1.4+  1.5+    020122 349  0.3-  0.0     020222 941  0.1-  0.1+
011211 704  1.3+  0.6+    020122 349  0.2-  0.1-    020222 941  0.4+  0.1+
011211 704  1.3+  1.4+    020124 170  0.7-  0.2-    020222 941  1.0+  0.2-
011211 704  1.4+  1.4+    020124 170  1.1-  0.1-    020222 170  0.1+  0.9-
011213 199  1.0+  0.6+    020124 170  1.3-  0.2-    020302 232  0.6+  1.9-
011214 199  0.7+  0.4+    020126 941  0.5-  0.4+    020302 232  0.7+  0.1+
011214 199  0.7+  0.3+    020126 941  1.3-  0.2+    020302 941  0.9+  0.1+
011214 704  0.6-  0.8-    020126 941  1.7-  0.1+    020302 941  0.9+  0.1+
011214 704  0.5+  0.3+    020126 941  1.6-  0.3+    020302 613  0.1+  0.5-
011214 704  1.2+  0.0     020126 213  1.7-  0.2+    020302 941  0.4+  0.2+
011214 704  1.5+  1.7+    020126 213  1.2-  0.2-    020302 170  1.1+  0.2+
011215 561  0.9+  0.4+    020126 213 (2.1-  0.1+)   020303 367  0.6+  0.0
011215 561  0.3+  0.0     020126 232  1.8-  0.1-    020303 367  0.3+  0.0
011215 561  0.9+  0.5+    020126 445  0.2+  0.2+    020303 367  0.9+  0.3+
011217 704  0.5+  1.6-    020126 445  0.7+  0.1-    020303 213  0.9+  1.2+
011217 704  1.4+  0.7-    020126 232 (0.3-  3.4-)   020303 213  1.2+  0.1-
011217 704 (2.2+  0.7-)   020201 213  1.3-  0.1+    020303 213  1.7+  0.3-
011217 644  0.7+  0.5+    020201 213  0.1+  0.1-    020303 213  1.3+  0.9-
011217 704  0.2-  0.0     020201 213  0.6-  0.0     020303 246  0.5+  0.5+
011217 644  0.6+  0.8+    020201 232  0.5+  0.8-    020303 246  0.0   0.4+
011217 644  0.6+  0.4+    020201 232  0.6+  0.6-    020303 246  0.4+  0.6+
011217 704 (2.7+  1.8+)   020201 232  0.2+  0.5-    020303 246  0.4+  0.5+
011218 360  0.4+  0.0     020201 445 (4.8+  2.6-)   020303 246  0.4+  0.6+
011218 360  0.1+  0.4+    020201 445 (1.2+  2.4-)   020304 235  0.5-  1.0+
011220 704  0.3-  1.1-    020201 458  1.9-  0.1+    020307 613  1.2+  0.1-
011220 704  0.8+  1.0+    020201 458  1.4-  0.4-    020307 613  0.7+  0.6-
011220 704  1.5+  0.2-    020201 458  1.7-  0.5-    020308 360  0.1+  0.2+
011220 704  1.4+  1.3+    020202 170  0.9-  0.7-    020308 360  0.3+  0.3+
011220 704 (0.9+  2.5+)   020202 170  0.7-  0.6-    020308 235  0.5+  1.6+
011221 704  0.4+  1.2-    020202 215  0.1-  0.0     020308 A46  0.7+  0.7-
011221 704  1.3+  0.5+    020202 215  0.1-  0.5+    020308 A46  0.6+  0.9-
011221 704  1.4+  0.8-    020202 215  0.2-  0.2+    020308 A46  0.9+  1.0-
011221 704 (0.3-  2.5+)   020203 213  0.4+  0.4+    020308 A46  0.7+  0.7-
011224 170  0.1-  0.8-    020203 213  0.4-  0.5+    020309 349  0.7+  1.0+
011224 170  0.5-  0.2+    020203 213  0.1-  0.4-    020309 349  1.4+  0.3+
011225 213  0.9-  0.2-    020204 644  1.4-  0.8-    020309 349  0.7+  0.8+
011226 213  0.5+  0.8-    020204 644  1.1-  0.9-    020309 235  1.8+  0.8+
011226 213  0.9+  1.1-    020204 644  1.1-  0.2-    020310 699  0.4+  0.9-
011226 349  0.7-  0.8+    020206 704  1.4+  1.5+    020310 699  1.0+  0.3-
011226 349  0.5-  1.4+    020206 704  0.1-  1.7+    020310 699  0.5+  0.0
011226 349  0.1+  1.2+    020206 704  0.5-  1.6+    020310 699  1.5+  0.0
011228 170 (1.4+  2.3-)   020206 704  0.2-  2.0+    020310 A46  0.1+  0.8-
011228 170  0.6-  0.0     020206 704 (2.8-  4.0+)   020310 A46  0.3-  0.9+
020103 151  0.3-  0.5+    020206 349  0.3-  0.1-    020310 A46  0.5+  0.5-
020103 151  0.1-  0.0     020206 349  0.1-  0.2-    020310 A46  1.0+  0.4-
020103 151  0.3-  0.3+    020206 349  0.2+  0.7-    020310 613  0.3+  0.1-
020103 151  0.4-  0.2+    020206 349  0.6+  0.5-    020310 613  0.2+  0.6+
020104 215  0.7-  0.0     020206 402  0.3+  0.1-    020311 235  0.2+  0.5+
020104 215  0.5-  0.1-    020206 402  0.3-  0.3-    020311 118  0.6+  0.0
020104 215  0.7-  0.0     020206 402  0.1-  0.2-    020311 118  0.5+  0.2+
020105 104  0.8-  0.0     020206 360  0.1-  0.0     020311 118  0.4+  0.1+
020105 104  0.9-  0.0     020206 360  0.1+  0.2+    020312 235  1.5+  0.5+
020105 104  1.1-  0.0     020207 704 (2.7+  2.0-)   020313 608  1.9+  1.6+
020106 213  0.9-  0.4-    020207 704  1.6+  1.2+    020313 608 (2.2+  1.2+)
020106 213  0.9-  0.4-    020207 704  0.3+  0.1-    020313 608  1.8+  1.6+
020106 213  1.6-  0.3-    020207 704 (1.0+  2.1+)   020317 704  0.1+  0.7-
020106 213  1.6-  0.6-    020207 704  0.4+  0.4+    020317 704  0.2-  1.1+
020107 170  1.0-  0.7-    020207 704  0.8+  1.9+    020317 704  1.2+  0.3+
020107 170  0.1-  0.4-    020207 704 (2.2-  0.7+)   020317 704 (3.0+  0.2-)
020107 170  1.0-  0.6-    020207 704 (6.9+  5.9+)   020319 170  0.8+  0.0
020107 644  1.0-  0.6-    020207 213  0.6+  0.4+    020322 941  0.7+  0.2-
020107 644  1.0-  0.5-    020207 213  0.2-  0.6+    020322 941  0.5+  0.1-
020107 644  1.0-  0.6-    020207 213  0.5-  0.2+    020322 941  0.5+  0.1-
020107 213  1.1-  1.1-    020207 170  0.4+  0.3-    020322 941  0.3+  0.8-
020107 213  0.1+  0.5-    020207 170  0.1-  0.4-    020330 046  0.6+  1.1+
020107 213  1.3-  0.7-    020208 322  0.1+  0.1-    020330 046  0.6+  0.3+
020107 458 (2.1-  1.2-)   020208 322  0.1+  0.1-    020330 046  0.5+  1.0+
020107 458 (3.7-  2.0-)   020208 322  0.2-  0.1-    020330 046  1.0+  0.5+
020108 349  0.5-  0.0     020208 213  0.0   0.0     020331 170  0.7-  1.3+
020108 349  0.5-  0.2-    020208 213  0.5+  0.6-    020401 587  0.4+  0.3+
020108 349  0.8-  0.1+    020208 213  0.1-  0.2-    020401 587  0.1-  0.3+
020108 349  0.3-  0.1-    020208 213  1.1-  0.8-    020404 360  1.0+  0.1+
020108 235  0.3-  1.7+    020208 213  0.7-  0.4-    020404 360  0.2+  0.2-
020109 704  0.2+  1.4-    020209 232  0.1-  0.1+    020404 367  1.8+  0.7-
020109 704  0.6-  0.4+    020209 232  1.7-  0.7-    020404 367 (2.7+  1.1+)
020109 704  0.1-  0.8+    020209 213  0.1-  0.3-    020405 170  0.2+  0.5+
020109 704  0.1+  0.8+    020209 213  0.6-  0.2+    020417 170  0.6+  0.8-
020109 704 (2.4-  2.5+)   020209 213  0.5-  0.8+    080908 291  0.4-  0.2+
020109 235  1.2-  1.0+    020210 213  0.4+  0.3-    080908 291  0.1+  0.3+
020110 349  0.3-  0.5+    020210 704 (5.4+  2.0-)   080908 291  1.0-  0.1+
020110 349  0.5-  0.0     020210 704  0.9+  1.8+    080909 691  0.5+  0.8-
020110 349  0.2-  0.5+    020210 704  0.3+  1.1+    080909 691  0.9+  0.8-
020110 349  0.5-  0.0     020210 704  0.2+  1.3+
020110 349  0.8-  0.4+    020210 704 (2.5-  4.2+)

